Location: Bile Cemetery
(42.6765°N, 74.3749°W)
Time: 02:07:19
(UTC+00:00)

Daily predictions for brighter satellites

Satellite Brightness Start Highest point End
(mag) Time Altitude Azimuth Time Altitude Azimuth Time Altitude Azimuth
Cosmos 2233 Rocket 4.1 00:47:27 10° S 00:53:47 89° W 01:00:08 10° N
Okean-O 3.4 00:51:16 10° S 00:55:36 55° W 00:59:58 10° NNW
Cosmos 389 Rocket 4.2 00:54:02 10° NNE 00:56:31 18° ENE 00:59:00 10° ESE
Cosmos 405 3.7 00:54:13 10° N 00:57:24 35° ENE 01:00:33 10° SE
ATLAS 2AS CENTAUR R/B 3.8 00:51:46 10° SSE 00:58:01 27° ESE 01:04:10 10° NE
Cosmos 1340 3.9 00:55:28 10° SE 00:58:30 24° E 01:01:33 10° NE
Meteor 1-27 Rocket 4.3 00:54:06 10° SSE 00:59:23 40° E 01:04:48 10° NNE
NOSS 3-4 (A) 3.3 00:56:49 10° SSW 01:02:27 77° ESE 01:08:31 10° NE
NOSS 3-4 (C) 3.3 00:56:51 10° SSW 01:02:31 76° ESE 01:08:36 10° NE
Cosmos 1184 Rocket 4.2 01:01:22 10° SE 01:03:31 18° E 01:05:41 10° NE
Cosmos 2344 3.8 00:57:56 10° S 01:05:10 45° ESE 01:12:10 10° NE
Cosmos 1743 3.8 01:03:44 10° NNE 01:07:01 27° ENE 01:10:13 10° SE
PSLV R/B 3.9 01:03:56 10° NNE 01:07:57 59° ESE 01:11:54 10° S
IGS 5A 3.7 01:03:52 10° S 01:08:01 72° W 01:12:10 10° NNW
Cosmos 2219 3.3 01:06:38 10° NNW 01:12:16 69° ENE 01:17:51 10° SSE
Cosmos 968 Rocket 4.0 01:08:39 10° SSW 01:13:45 64° WNW 01:18:51 10° NNE
Meteor 1-11 Rocket 4.0 01:08:04 10° N 01:14:01 63° ENE 01:19:53 10° SSE
USA 129 2.4 01:14:33 10° SSW 01:15:27 15° WSW 01:15:59 10° WNW
COBE Rocket 4.3 01:10:37 10° S 01:15:42 68° W 01:20:41 10° NNW
CZ-4B R/B 1.2 01:13:18 10° NNE 01:16:28 60° E 01:19:34 10° S
MetOp-A 4.4 01:12:49 10° S 01:16:43 44° W 01:20:26 10° NNW
SPOT 1/Viking Rocket 3.8 01:13:12 10° SSE 01:18:14 56° ENE 01:23:17 10° N
Cosmos 2082 4.3 01:14:13 10° NNW 01:19:33 42° ENE 01:24:18 13° SE
Cosmos 1464 Rocket 4.2 01:15:20 10° SSE 01:21:19 52° E 01:27:15 10° NNE
OE (NEXTSAT) 4.1 01:18:32 10° WSW 01:21:48 63° SSE 01:25:05 10° ENE
H-2A R/B 2.2 01:19:06 10° N 01:23:11 71° WNW 01:27:16 10° SSW
Cosmos 2263 Rocket 3.6 01:19:55 10° N 01:24:28 25° NE 01:28:51 10° ESE
ATLAS 3B R/B 4.5 01:19:59 10° NNW 01:25:43 24° NNE 01:31:37 10° E
IRAS Rocket 4.2 01:22:55 10° NNE 01:28:34 72° ESE 01:34:11 10° S
Cosmos 1328 Rocket 4.0 01:24:34 10° SSW 01:28:50 63° W 01:33:08 10° N
Aureole 1 Rocket 2.1 01:26:48 10° SSW 01:30:08 72° ESE 01:33:07 10° NNE
Cosmos 1536 2.8 01:30:32 10° N 01:34:33 72° E 01:38:03 13° SSE
CENTAUR R/B 4.4 01:28:01 10° NW 01:35:42 39° WSW 01:43:49 10° S
Okean 1 4.2 01:33:49 16° SE 01:36:22 31° E 01:39:56 10° NNE
RESURS DK-1 3.4 01:33:58 14° SSE 01:36:39 26° ESE 01:40:07 10° NE
Nadezhda 4 Rocket 4.3 01:32:48 10° N 01:38:52 51° ENE 01:43:43 16° SSE
Cosmos 2227 Rocket 2.6 01:35:46 10° NNW 01:41:23 63° WSW 01:46:40 11° S
Ariane Rocket 3.0 01:38:03 12° SSE 01:42:47 88° ENE 01:47:54 10° NNW
SL-4 R/B 2.1 01:39:19 10° WNW 01:43:54 82° SSW 01:46:47 20° SE
IRS-1A Rocket 4.5 01:38:47 10° S 01:44:24 74° WSW 01:50:11 10° NNW
Cosmos 1980 Rocket 2.1 01:43:28 10° SSW 01:49:01 69° ESE 01:54:41 10° NNE
Cosmos 1933 Rocket 3.5 01:49:31 10° N 01:54:01 87° ENE 01:57:21 18° S
Cosmos 2369 3.7 01:51:09 10° SSW 01:56:48 89° WNW 02:02:30 10° NNE
Timation 2 Rocket 4.2 01:50:55 10° NNW 01:57:30 70° ENE 02:02:16 21° SE
Cosmos 2322 Rocket 3.8 01:57:06 14° ESE 01:57:30 14° E 02:00:24 10° ENE
SPOT 5 3.5 01:55:10 21° SE 01:58:28 47° ENE 02:03:24 10° N
Meteor 1-19 Rocket 4.2 01:54:39 13° S 01:59:20 60° E 02:04:40 10° NNE
Terra 2.7 02:01:25 22° ESE 02:03:46 34° ENE 02:08:04 10° N
Cosmos 1975 4.1 02:00:33 10° NNE 02:04:03 27° ENE 02:05:19 23° ESE
ISS -2.0 02:01:17 10° NW 02:04:14 28° NNE 02:06:37 13° ENE
SJ 16-02 1.2 02:03:00 13° S 02:06:51 70° ESE 02:11:13 10° NNE
Helios 1A Rocket 2.9 02:05:25 28° SSE 02:07:23 64° ENE 02:11:22 10° N
Cosmos 1697 Rocket 3.9 02:03:01 10° SW 02:08:23 44° WNW 02:13:49 10° NNE
SPOT 3 Rocket 3.6 02:09:04 20° S 02:12:40 80° WSW 02:17:50 10° NNW
OAO 3 Rocket 4.2 02:09:44 10° WSW 02:13:57 29° SSW 02:15:07 26° SSE
BREEZE M DEB (TANK) 3.9 02:09:58 10° WNW 02:14:04 78° NNE 02:29:05 11° ESE
Cosmos 1354 Rocket 4.1 02:09:46 10° SSW 02:15:02 82° WNW 02:20:23 10° NNE
Cosmos 1777 Rocket 4.0 02:11:14 16° S 02:15:24 63° ESE 02:20:35 10° NNE
Spot 2 Rocket 3.5 02:13:45 27° SSE 02:16:32 71° ENE 02:21:34 10° N
NOSS 2-1 (D) 4.4 02:18:48 22° ENE 02:18:48 22° ENE 02:20:19 10° ENE
Cosmos 2297 Rocket 4.2 02:13:47 10° NW 02:17:52 21° W 02:21:56 10° SSW
ATLAS CENTAUR Rocket 4.0 02:14:41 10° SW 02:18:22 14° S 02:18:22 14° S
Resurs 01 Rocket 3.4 02:16:39 10° SSW 02:20:23 27° W 02:24:10 10° NW
Cosmos 773 Rocket 3.9 02:16:08 10° NNW 02:21:23 81° ENE 02:23:59 30° SSE
USA 215 4.1 02:17:49 10° ENE 02:23:06 26° SE 02:23:36 25° SE
Cosmos 2034 Rocket 4.2 02:17:28 10° SSW 02:23:44 75° W 02:30:07 10° N
Meteor 2-21 4.4 02:18:48 10° N 02:24:56 88° W 02:28:52 24° S
Meteor 2-9 Rocket 4.3 02:22:25 10° NNW 02:28:12 82° W 02:31:31 26° S
Cosmos 389 Rocket 4.4 02:28:00 10° NW 02:30:55 25° W 02:33:03 15° SW
SL-16 R/B 2.6 02:33:55 33° SSE 02:35:47 43° ESE 02:41:07 10° NE
Meteor 2-21 Rocket 4.4 02:32:18 10° N 02:38:26 88° E 02:41:43 30° S
Cosmos 921 Rocket 4.0 02:34:31 10° NNW 02:38:49 43° WSW 02:40:56 25° SSW
EXPRESS MD2 3.6 02:35:32 10° WNW 02:40:02 40° SW 02:40:16 39° SSW
Cosmos 2228 Rocket 3.4 02:37:13 23° SSW 02:40:02 68° W 02:44:35 10° N
SAR-Lupe-4 4.3 02:38:50 10° NNE 02:41:51 37° E 02:41:51 37° E
Cosmos 2292 Rocket 2.5 02:40:33 10° N 02:43:28 83° NW 02:43:28 83° NW
Cosmos 1869 Rocket 4.0 02:39:28 10° NNW 02:43:53 57° W 02:45:49 31° SSW
Meteor 1-18 Rocket 4.2 02:40:05 22° SSW 02:43:54 85° W 02:49:33 10° N
USA 81 4.0 02:42:03 36° SSE 02:44:09 68° E 02:49:24 10° N
Cosmos 2279 Rocket 4.3 02:43:31 34° SE 02:45:53 50° E 02:51:51 10° NNE
Cosmos 1346 Rocket 2.7 02:45:42 56° SSE 02:46:20 67° E 02:50:20 10° NNE
ATLAS 2AS CENTAUR R/B 3.2 02:40:37 10° SW 02:48:25 73° NW 02:56:02 10° NNE
Cosmos 158 Rocket 3.9 02:44:41 10° NNW 02:49:52 83° ENE 02:51:39 43° SSE
Meteor 2-16 Rocket 4.4 02:44:50 10° N 02:51:01 87° W 02:53:57 34° S
Cosmos 1441 Rocket 4.1 02:51:43 34° ENE 02:51:43 34° ENE 02:54:38 10° NNE
BREEZE-M DEB (TANK) 2.6 02:50:20 10° NW 02:52:41 51° NNE 02:53:59 32° E
Cosmos 44 Rocket 3.2 02:49:52 10° NNW 02:54:35 74° NE 02:55:47 49° SE
ERS-1 Rocket 3.3 02:52:45 33° SSW 02:54:53 60° W 02:59:52 10° NNW
Cosmos 2278 4.3 02:50:20 10° SW 02:55:54 58° WNW 03:01:31 10° NNE
Cosmos 1538 Rocket 4.0 02:53:49 10° NNW 02:59:04 71° ENE 03:00:33 46° SE
ARIANE 5 R/B 2.6 03:00:48 51° S 03:01:53 77° WSW 03:06:24 10° NNW
Cosmos 2360 Rocket 3.0 03:01:54 32° ESE 03:02:03 32° ESE 03:06:59 10° NE
SAR-Lupe-1 3.9 02:59:38 10° NNE 03:03:13 86° E 03:03:13 86° E
Cosmos 1707 Rocket 3.9 03:06:10 39° SW 03:07:38 63° W 03:12:02 10° N
Geosat 4.1 03:06:53 45° ESE 03:08:17 67° ENE 03:13:17 10° NNW
Cosmos 2263 Rocket 2.6 03:03:17 10° NNW 03:08:43 54° WSW 03:10:33 37° SSW
Iridium 2 3.9 03:05:05 10° N 03:08:34 57° ENE 03:08:34 57° ENE
RESURS DK-1 4.3 03:10:59 10° WSW 03:14:33 28° NW 03:18:09 10° N
NOSS 2-1 (E) 3.4 03:16:54 55° NNW 03:16:54 55° NNW 03:19:50 10° NNE
ATLAS 3B R/B 2.9 03:10:14 10° NNW 03:17:40 76° NE 03:21:03 37° SE
Cosmos 1937 Rocket 4.4 03:21:18 32° E 03:21:18 32° E 03:25:40 10° NE
Cosmos 1703 Rocket 4.4 03:22:41 36° E 03:22:41 36° E 03:26:26 10° NNE
SL-4 R/B 4.3 03:20:25 10° W 03:22:14 14° WSW 03:22:14 14° WSW
ATLAS CENTAUR R/B 3.6 03:19:53 10° NNW 03:23:45 23° NE 03:25:57 17° ENE
Cosmos 1066 Rocket 4.2 03:24:18 50° S 03:25:50 78° E 03:31:32 10° NNE
Cosmos 1805 3.4 03:22:51 10° N 03:26:25 63° NE 03:26:25 63° NE
Gblst 52 Del rocket 4.3 03:28:19 10° SW 03:35:03 81° SE 03:40:56 10° ENE
Cosmos 990 Rocket 3.9 03:38:00 55° SSW 03:39:11 84° WNW 03:44:28 10° NNE
Cosmos 1680 Rocket 3.9 03:34:01 10° N 03:39:13 53° ENE 03:40:08 47° E
Cosmos 1733 Rocket 3.8 03:35:03 10° NNW 03:39:16 43° W 03:39:49 40° WSW
Cosmos 1766 4.0 03:36:52 10° N 03:40:10 45° NE 03:40:10 45° NE
Cosmos 2322 Rocket 2.2 03:38:51 43° SW 03:40:47 79° WNW 03:46:26 10° NNE
ISS -1.9 03:37:54 10° WNW 03:39:31 26° WNW 03:39:31 26° WNW
Terra 3.3 03:40:18 23° WSW 03:41:33 26° W 03:45:32 10° NW
Cosmos 2333 Rocket 2.8 03:43:38 39° ESE 03:43:38 39° ESE 03:48:41 10° NE
Cosmos 1818 4.4 03:38:28 10° NNW 03:43:41 43° NE 03:45:23 34° E
Cosmos 1733 3.6 03:40:03 10° NNW 03:43:16 59° NW 03:43:16 59° NW
SJ 16-02 4.2 03:43:58 10° W 03:45:55 13° NW 03:47:53 10° NNW
BREEZE-M DEB (TANK) 4.3 03:44:15 10° NW 03:45:47 25° N 03:45:47 25° N
SL-24 R/B - RUBIN 2 4.3 03:42:11 10° NW 03:46:08 41° WSW 03:46:08 41° WSW
Cosmos 1655 Rocket 3.9 03:42:10 10° N 03:48:25 75° E 03:49:51 54° SSE
Cosmos 1844 Rocket 2.7 03:43:14 10° NNW 03:48:49 69° ENE 03:49:50 56° ESE
Cosmos 1898 Rocket 3.4 03:49:21 69° S 03:50:00 82° ESE 03:55:21 10° NNE
Meteor 1-23 Rocket 4.3 03:49:21 56° SE 03:50:09 62° E 03:55:55 10° NNE
Cosmos 1908 Rocket 3.5 03:45:52 10° N 03:50:01 80° NNE 03:50:01 80° NNE
CZ-4C R/B 4.2 03:44:33 10° NNW 03:50:58 35° NE 03:58:05 11° ESE
Cosmos 2242 Rocket 3.9 03:51:53 57° ENE 03:51:53 57° ENE 03:56:04 10° NNE
ALOS 2 3.5 03:53:20 38° ENE 03:53:23 38° ENE 03:57:27 10° N
Iridium 4 Rocket 3.2 03:51:32 10° N 03:56:10 80° E 03:56:17 79° ESE
Spot 4 3.8 03:57:04 70° E 03:57:17 72° ENE 04:02:05 10° N
Cosmos 2219 Rocket 2.6 04:06:18 45° E 04:06:18 45° E 04:11:22 10° NE
USA 215 3.2 04:00:00 10° NE 04:06:35 88° NW 04:10:53 24° SW
Meteor 1-4 Rocket 4.3 04:03:30 10° NNW 04:05:43 27° WNW 04:05:43 27° WNW
Cosmos 1900 4.2 04:06:29 80° SW 04:06:47 88° NW 04:11:56 10° NNE
Cosmos 1844 3.6 04:04:12 10° NNW 04:10:02 85° ENE 04:10:53 66° SE
ERS-2 3.5 04:11:56 10° NNE 04:14:09 34° NE 04:14:09 34° NE
Cosmos 1470 3.8 04:13:04 10° N 04:15:57 40° NE 04:15:57 40° NE
ADEOS Rocket 3.3 04:16:10 43° ESE 04:17:20 50° ENE 04:23:03 10° N
SL-16 R/B 3.8 04:15:42 13° WSW 04:20:00 30° NW 04:24:59 10° N
Cosmos 2266 Rocket 4.2 04:18:19 10° NNW 04:24:24 57° W 04:25:37 49° SW
Cosmos 1726 3.6 04:25:39 10° NNW 04:28:03 33° NW 04:28:03 33° NW
Meteor 1-15 Rocket 4.5 04:26:50 10° NNW 04:32:22 55° W 04:33:00 52° WSW
Cosmos 372 Rocket 3.8 04:32:17 80° WSW 04:32:29 82° WNW 04:37:40 10° NNE
Okean 1-7 4.2 04:32:38 34° W 04:32:46 34° WNW 04:36:47 10° N
Cosmos 2237 Rocket 3.9 04:35:05 20° E 04:35:05 20° E 04:38:45 10° NE
Cosmos 1842 4.2 04:36:57 43° NW 04:36:57 43° NW 04:39:57 10° N
COSMOS 2428 2.8 04:36:14 56° ESE 04:36:15 56° ESE 04:41:48 10° NNE
Meteor 2-17 Rocket 4.3 04:34:20 10° N 04:40:33 89° W 04:41:29 66° S
USA 267 3.5 04:36:50 25° ESE 04:40:48 67° NE 04:47:18 10° NW
ATLAS 5 CENTAUR R/B 4.1 04:27:28 10° NW 04:41:48 49° NNE 04:44:48 22° E
Cosmos 1242 Rocket 4.2 04:38:23 10° N 04:40:42 31° NNE 04:40:42 31° NNE
Cosmos 1626 3.9 04:45:22 27° NE 04:45:22 27° NE 04:47:27 10° NNE
Cosmos 2360 Rocket 3.3 04:43:37 27° WSW 04:45:55 38° WNW 04:51:11 10° N
Meteor 1-21 4.1 04:49:03 72° SSE 04:49:39 82° E 04:55:30 10° NNE
Cosmos 1758 4.2 04:47:36 10° N 04:50:42 47° NNE 04:50:42 47° NNE
In-Cosmos 22 4.0 04:52:12 76° SSE 04:52:35 81° E 04:58:06 10° NNE
Cosmos 1674 3.9 04:54:50 38° NNE 04:54:50 38° NNE 04:57:18 10° NNE
Cosmos 1461 3.5 04:51:28 10° NNW 04:55:15 53° NNE 04:55:15 53° NNE
Cosmos 1674 Rocket 4.4 04:58:10 42° ENE 04:58:10 42° ENE 05:01:38 10° NNE
Cosmos 2221 Rocket 3.9 04:59:08 61° NE 04:59:08 61° NE 05:02:56 10° NNE
ATLAS CENTAUR R/B 2.3 04:58:11 10° NW 05:01:57 47° WNW 05:01:57 47° WNW
Cosmos 2278 Rocket 3.1 05:01:26 10° NNW 05:06:50 42° ENE 05:09:00 30° ESE
Cosmos 1867 3.4 05:06:53 76° WSW 05:07:18 85° WNW 05:12:50 10° NNE
ATLAS 3B R/B 4.1 05:02:00 10° WNW 05:07:47 25° WSW 05:08:17 25° WSW
Cosmos 2298 Rocket 4.4 05:09:10 50° ESE 05:09:10 50° ESE 05:14:14 10° NNE
NOSS 3-1 (A) 4.2 05:02:36 10° NNW 05:10:09 74° NE 05:15:21 27° SE
Cosmos 1378 Rocket 3.9 05:13:26 59° NE 05:13:26 59° NE 05:17:18 10° NNE
S3M 4.2 05:12:39 53° SE 05:13:53 63° E 05:20:10 10° NNE
NOSS 3-1 (C) 4.1 05:10:16 10° NW 05:17:54 70° WSW 05:20:34 47° S
Cosmos 1553 Rocket 3.9 05:17:15 63° SW 05:18:15 77° W 05:24:27 10° N
SL-16 R/B 4.2 05:21:45 15° ESE 05:22:33 16° E 05:25:46 10° ENE
Cosmos 468 4.4 05:19:43 10° NNW 05:24:58 76° ENE 05:25:26 70° ESE
Cosmos 1980 3.8 05:26:06 55° SE 05:26:27 56° ESE 05:31:58 10° NNE
Cosmos 2333 Rocket 3.5 05:25:36 25° W 05:27:46 33° NW 05:32:52 10° N
PSLV R/B 4.0 05:24:10 10° N 05:28:18 58° WNW 05:28:18 58° WNW
Okean 2 4.4 05:30:19 38° NW 05:30:19 38° NW 05:33:34 10° N
USA 308 3.9 05:31:58 39° ENE 05:31:58 39° ENE 05:34:44 10° NE
Cosmos 2151 Rocket 4.1 05:29:17 10° NNW 05:32:58 51° WNW 05:32:58 51° WNW
USA 32 4.3 05:36:47 53° ESE 05:37:25 57° E 05:42:34 10° NNE
Okean 2 Rocket 3.9 05:33:31 10° NNW 05:37:16 43° WNW 05:37:16 43° WNW
CZ-4C R/B 3.0 05:32:42 10° NW 05:40:09 72° WSW 05:43:11 43° SSE
NOSS 0 Rocket 3.9 05:41:18 60° SSW 05:42:34 87° WNW 05:48:52 10° NNE
Meteor 2-10 Rocket 4.3 05:37:28 10° N 05:42:57 48° ENE 05:44:37 37° ESE
Cosmos 1300 3.5 05:42:47 10° N 05:45:57 48° NE 05:45:57 48° NE
SL-14 R/B 3.8 05:48:38 57° N 05:48:38 57° N 05:51:47 10° N
Cosmos 2219 Rocket 3.6 05:47:59 22° W 05:50:11 28° NW 05:55:00 10° N
GP-B 3.5 05:45:55 10° N 05:50:17 54° E 05:50:23 54° E
USA 305 3.1 05:54:12 66° N 05:54:12 66° N 05:58:05 10° NE
Lacrosse 5 2.7 05:56:03 37° ESE 05:56:03 37° ESE 06:00:26 10° ENE
Meteor 1-16 Rocket 4.4 05:51:17 10° NNW 05:57:06 59° W 05:57:54 54° SW
Cosmos 1745 Rocket 4.0 05:51:17 10° NNW 05:57:24 61° W 05:58:31 52° SW
Cosmos 371 Rocket 3.5 06:01:56 57° W 06:02:20 59° WNW 06:07:10 10° NNE
Cosmos 405 Rocket 4.2 06:03:07 28° NW 06:03:07 28° NW 06:05:49 10° N
Meteor 2-12 Rocket 4.3 05:57:06 10° N 06:03:11 77° W 06:04:32 55° SSW
ADEOS Rocket 4.2 06:03:06 22° W 06:03:16 22° W 06:07:44 10° NW
Meteor 2-5 Rocket 4.3 06:03:03 39° SE 06:04:40 50° E 06:10:09 10° NNE
CZ-2D R/B 3.0 06:00:01 10° NNE 06:05:02 38° E 06:06:25 33° SE
Cosmos 1437 Rocket 4.0 06:02:48 10° NNW 06:05:11 31° NW 06:05:11 31° NW
Lacrosse 5 rocket 3.1 06:08:27 21° E 06:08:27 21° E 06:10:34 10° ENE
Cosmos 2150 Rocket 4.3 06:07:30 47° W 06:08:20 52° WNW 06:13:24 10° N
Cosmos 304 Rocket 3.7 06:12:40 69° WSW 06:13:07 75° WNW 06:17:57 10° NNE
Cosmos 1953 3.4 06:10:20 10° NNW 06:13:13 34° WNW 06:13:13 34° WNW
Okean 1 Rocket 3.9 06:11:52 10° NNW 06:15:34 38° WNW 06:15:34 38° WNW
Cosmos 2237 Rocket 2.4 06:16:53 47° WSW 06:18:18 61° WNW 06:23:59 10° NNE
COSMOS 2428 4.4 06:18:12 18° W 06:20:51 24° NW 06:25:26 10° N
Cosmos 1125 Rocket 4.3 06:20:46 34° W 06:21:56 38° WNW 06:26:47 10° N
USA 267 3.7 06:24:07 38° SW 06:24:07 38° SW 06:30:04 10° WNW
MOZ.5/SAFIR/RUBIN 5/SL-8 3.7 06:29:54 60° SW 06:30:19 63° W 06:35:02 10° NNW
ERBS 3.6 06:30:58 33° NNW 06:30:58 33° NNW 06:33:20 10° NNE
Resurs 1-4 Rocket 2.1 06:28:19 10° NNE 06:33:36 72° ESE 06:35:10 45° S
SL-16 R/B 2.9 06:29:57 21° SE 06:34:14 64° ENE 06:40:24 10° N
USA 229 DEB 4.1 06:27:14 10° NW 06:34:23 50° WSW 06:37:09 36° SSW
USA 229 4.1 06:27:19 10° NW 06:34:29 51° WSW 06:37:16 36° SSW
Cosmos 839 Rocket 4.4 06:29:19 10° NW 06:35:40 56° WSW 06:38:46 34° S
USA 306 4.0 06:34:39 28° WNW 06:36:04 38° NNW 06:40:00 10° NE
Cosmos 2084 Rocket 3.1 06:38:37 71° WNW 06:38:42 71° NW 06:42:30 10° NNE
Cosmos 1943 Rocket 2.6 06:33:08 10° NNW 06:38:47 63° ENE 06:43:43 14° SE
USA 307 3.9 06:38:15 30° WNW 06:39:39 40° NNW 06:43:37 10° NE
Cosmos 2074 Rocket 4.2 06:37:42 10° N 06:44:01 71° E 06:47:56 24° SSE
ADEOS II 2.6 06:43:56 10° NNE 06:49:04 52° E 06:51:27 29° SSE
IDEFIX/ARIANE 42P 3.4 06:44:32 10° NNE 06:49:34 43° E 06:52:16 24° SSE
Cosmos 2278 Rocket 3.1 06:45:53 10° NW 06:50:43 29° WSW 06:50:48 29° WSW
Cosmos 1455 Rocket 3.4 06:49:52 10° NNW 06:54:08 45° W 06:54:30 44° WSW
Thor Agena Rocket 4.4 06:51:18 10° N 06:56:11 39° WNW 06:57:54 30° WSW
Cosmos 2184 Rocket 3.9 06:52:53 10° N 06:59:10 89° E 07:02:58 25° S
CZ-4 R/B 3.9 06:56:18 10° N 07:00:54 62° WNW 07:02:14 43° SW
Cosmos 1536 Rocket 3.8 06:59:29 37° SSE 07:01:04 65° E 07:05:26 10° NNE
Cosmos 614 Rocket 4.5 06:57:31 10° NNW 07:02:40 59° ENE 07:07:48 10° SSE
NPP 3.6 06:57:27 10° N 07:02:52 78° WNW 07:05:06 37° SSW
Cosmos 2369 Rocket 3.5 06:59:30 10° NNW 07:04:46 40° ENE 07:09:59 10° SE
BREEZE-M DEB (TANK) 4.3 07:03:44 29° S 07:04:53 33° SSE 07:07:48 10° E
SL-16 R/B 2.2 07:03:37 37° SW 07:05:56 75° WNW 07:11:39 10° NNE
Cosmos 1975 Rocket 4.2 07:08:11 27° W 07:08:57 29° WNW 07:12:51 10° NNW
Cosmos 1455 2.0 07:07:12 10° NNW 07:10:53 75° W 07:11:37 54° SSW
Cosmos 1025 Rocket 4.1 07:14:32 27° W 07:15:20 29° WNW 07:19:09 10° NNW
Cosmos 1271 Rocket 3.1 07:11:44 10° N 07:15:32 62° ENE 07:17:48 23° SSE
UNK 3.7 07:14:06 35° S 07:15:58 66° WSW 07:20:33 10° NNW
COSMOS 2455 2.9 07:14:13 30° SSW 07:17:19 78° ESE 07:23:22 10° NNE
YAOGAN 11 4.1 07:16:27 34° S 07:18:16 67° WSW 07:22:45 10° NNW
SME Rocket 4.4 07:19:18 24° W 07:19:21 24° W 07:23:04 10° NW
MOS 1 Rocket 3.0 07:21:12 34° S 07:22:54 63° W 07:27:11 10° NNW
Meteor 1-24 Rocket 4.4 07:23:37 27° WSW 07:25:57 39° WNW 07:31:05 10° N
CZ-4C R/B 4.5 07:23:30 10° WNW 07:28:00 16° WSW 07:28:18 16° WSW
Nadezhda 1 Rocket 4.0 07:28:58 24° SSW 07:33:00 72° W 07:39:19 10° N
MSX 3.9 07:27:36 10° NNE 07:33:24 81° ESE 07:37:35 20° S
Helios 1B rocket 4.1 07:30:32 10° NE 07:34:05 28° E 07:37:37 10° SSE
Lacrosse 5 2.7 07:35:14 18° W 07:38:39 44° NW 07:43:32 10° NE
CZ-2D R/B 3.3 07:40:20 10° N 07:44:54 29° WNW 07:47:44 18° WSW
Helios 1A 3.1 07:43:07 23° S 07:45:30 53° W 07:49:40 10° NNW
Lacrosse 5 rocket 2.1 07:43:58 21° W 07:46:09 42° NW 07:50:04 10° NE
Cosmos 407 Rocket 4.2 07:48:26 10° NNW 07:53:42 57° ENE 07:58:51 10° SE
Lacrosse 4 Rocket 4.0 07:53:54 10° SE 07:56:13 14° ESE 07:58:30 10° ENE
Cosmos 1703 3.8 07:56:54 23° SW 07:58:52 41° WNW 08:02:38 10° N
Meteor 2-1 Rocket 4.3 07:53:30 10° N 07:59:18 87° E 08:04:56 10° S
Cosmos 1892 Rocket 4.0 07:56:13 10° S 08:00:34 65° E 08:05:01 10° NNE
Cosmos 1943 3.3 07:56:10 16° SSW 08:00:44 82° ESE 08:06:27 10° NNE
Cosmos 2366 rocket 4.5 07:55:01 10° N 08:01:07 63° E 08:07:15 10° SSE
Cosmos 2341 Rocket 4.1 07:55:57 10° N 08:02:22 88° W 08:08:46 10° S
Cosmos 2237 Rocket 4.5 08:01:33 10° WNW 08:03:37 12° NW 08:05:41 10° NNW
Cosmos 1140 Rocket 3.7 07:58:49 10° NNW 08:04:05 74° ENE 08:09:19 10° SSE
SL-19 R/B 4.5 07:58:59 10° NNE 08:05:08 85° ESE 08:10:52 10° SSW
Cosmos 1726 Rocket 3.6 08:01:02 10° N 08:05:28 83° E 08:09:51 10° S
GPS 2-04 Rocket1 4.2 08:05:27 15° S 08:06:28 16° SSE 08:08:45 10° ESE
SL-8 Rocket 4.1 08:01:56 10° N 08:08:18 86° E 08:14:37 10° S
SeaSat 1 4.3 08:05:45 10° NE 08:09:50 26° ESE 08:13:54 10° SSE
Resurs 1-4 Rocket 4.0 08:09:36 10° NNW 08:12:48 16° WNW 08:15:59 10° W
DEBRIS 4.2 08:08:27 10° WNW 08:17:57 55° N 08:21:04 10° E
SL-16 R/B 3.8 08:15:02 14° SW 08:18:17 21° W 08:22:51 10° NW
SL-24 DEB 4.3 08:16:08 10° S 08:20:52 90° SW 08:25:36 10° N
Cosmos 1943 Rocket 3.6 08:18:05 10° NW 08:21:58 19° W 08:25:08 12° SW
Cosmos 1023 Rocket 4.5 08:17:00 10° NNW 08:22:17 75° WSW 08:27:30 10° SSE
FENGYUN 3A 3.9 08:17:47 10° NNE 08:23:11 75° ESE 08:28:34 10° S
[s.n.52708] 3.3 08:22:00 16° SSW 08:24:00 44° SE 08:26:44 10° ENE
[s.n.52707] 3.3 08:22:07 16° SSW 08:24:08 44° SE 08:26:51 10° ENE
[s.n.52703] 3.3 08:22:14 16° SSW 08:24:15 45° SE 08:26:58 10° ENE
[s.n.52705] 3.3 08:22:20 16° SSW 08:24:21 45° SE 08:27:05 10° ENE
Cosmos 2263 4.2 08:18:44 10° NNW 08:24:23 68° WSW 08:30:03 10° SSE
[s.n.52706] 3.3 08:22:27 16° SSW 08:24:28 45° SE 08:27:11 10° ENE
[s.n.52701] 3.3 08:22:33 16° SSW 08:24:35 45° SE 08:27:19 10° ENE
[s.n.52704] 3.3 08:22:40 16° SSW 08:24:42 45° SE 08:27:25 10° ENE
Cosmos 1892 3.2 08:21:06 10° S 08:24:48 59° E 08:28:32 10° NNE
[s.n.52699] 3.3 08:22:47 16° SSW 08:24:49 45° SE 08:27:32 10° ENE
[s.n.52702] 3.3 08:22:53 16° SSW 08:24:56 45° SE 08:27:40 10° ENE
[s.n.52697] 3.3 08:23:00 16° SSW 08:25:03 46° SE 08:27:47 10° ENE
[s.n.52700] 3.2 08:23:06 15° SSW 08:25:09 46° SE 08:27:53 10° ENE
[s.n.52695] 3.2 08:23:13 15° SSW 08:25:16 46° SE 08:28:00 10° ENE
[s.n.52698] 3.2 08:23:20 15° SSW 08:25:23 46° SE 08:28:08 10° ENE
[s.n.52693] 3.2 08:23:27 15° SSW 08:25:31 46° SE 08:28:15 10° ENE
[s.n.52696] 3.2 08:23:33 15° SSW 08:25:37 46° SE 08:28:22 10° ENE
[s.n.52691] 3.2 08:23:40 15° SSW 08:25:44 46° SE 08:28:29 10° ENE
[s.n.52689] 3.2 08:23:47 15° SSW 08:25:51 47° SE 08:28:36 10° ENE
[s.n.52694] 3.2 08:23:53 15° SSW 08:25:58 47° SE 08:28:43 10° ENE
[s.n.52692] 3.2 08:24:00 15° SSW 08:26:05 47° SE 08:28:50 10° ENE
[s.n.52687] 3.2 08:24:07 15° SSW 08:26:12 47° SE 08:28:56 10° ENE
[s.n.52685] 3.2 08:24:13 15° SSW 08:26:19 47° SE 08:29:03 10° ENE
[s.n.52690] 3.2 08:24:20 15° SSW 08:26:26 47° SE 08:29:11 10° ENE
[s.n.52688] 3.2 08:24:27 15° SSW 08:26:32 48° SE 08:29:18 10° ENE
[s.n.52683] 3.2 08:24:33 15° SSW 08:26:40 48° SE 08:29:25 10° ENE
[s.n.52686] 3.2 08:24:41 15° SSW 08:26:47 48° SE 08:29:33 10° ENE
[s.n.52681] 3.2 08:24:47 15° SSW 08:26:54 48° SE 08:29:39 10° ENE
[s.n.52679] 3.2 08:24:54 15° SSW 08:27:01 48° SE 08:29:46 10° ENE
[s.n.52684] 3.2 08:25:01 15° SSW 08:27:08 48° SE 08:29:54 10° ENE
[s.n.52682] 3.2 08:25:08 15° SSW 08:27:15 49° SE 08:30:01 10° ENE
[s.n.52677] 3.2 08:25:14 15° SSW 08:27:22 49° SE 08:30:08 10° ENE
[s.n.52680] 3.1 08:25:22 15° SSW 08:27:29 49° SE 08:30:16 10° ENE
[s.n.52675] 3.1 08:25:28 15° SSW 08:27:36 49° SE 08:30:23 10° ENE
[s.n.52678] 3.1 08:25:35 15° SSW 08:27:44 49° SE 08:30:30 10° ENE
[s.n.52673] 3.1 08:25:43 15° SSW 08:27:52 49° SE 08:30:37 10° ENE
[s.n.52676] 3.1 08:25:49 15° SSW 08:27:58 50° SE 08:30:44 10° ENE
[s.n.52671] 3.1 08:25:57 15° SSW 08:28:06 50° SE 08:30:51 10° ENE
[s.n.52669] 3.1 08:26:04 15° SSW 08:28:13 50° SE 08:30:58 10° ENE
[s.n.52674] 3.1 08:26:10 15° SSW 08:28:20 50° SE 08:31:06 10° ENE
ADEOS II 3.6 08:24:25 10° NNW 08:28:21 22° WNW 08:32:17 10° WSW
[s.n.52672] 3.1 08:26:16 15° SSW 08:28:27 50° SE 08:31:13 10° ENE
Cosmos 1624 Rocket 4.2 08:23:15 10° SSW 08:28:34 77° ESE 08:33:52 10° NNE
[s.n.52667] 3.1 08:26:24 15° SSW 08:28:34 50° SE 08:31:21 10° ENE
[s.n.52665] 3.1 08:26:31 15° SSW 08:28:42 51° SE 08:31:28 10° ENE
[s.n.52670] 3.1 08:26:38 15° SSW 08:28:49 51° SE 08:31:36 10° ENE
IDEFIX/ARIANE 42P 3.9 08:24:36 10° N 08:28:53 26° WNW 08:33:04 10° WSW
[s.n.52668] 3.1 08:26:45 15° SSW 08:28:56 51° SE 08:31:43 10° ENE
[s.n.52666] 3.1 08:26:52 15° SSW 08:29:03 51° SE 08:31:50 10° ENE
[s.n.52663] 3.1 08:26:58 14° SSW 08:29:11 51° SE 08:31:57 10° ENE
[s.n.52662] 3.1 08:27:05 14° SSW 08:29:18 51° SE 08:32:05 10° ENE
[s.n.52664] 3.1 08:27:13 14° SW 08:29:25 52° SE 08:32:12 10° ENE
[s.n.52661] 3.1 08:27:20 14° SW 08:29:33 52° SE 08:32:19 10° ENE
[s.n.52660] 3.1 08:27:26 14° SW 08:29:39 52° SE 08:32:27 10° ENE
ARIANE 5 R/B 3.1 08:24:48 10° NNE 08:29:47 57° E 08:34:42 10° S
[s.n.52656] 3.1 08:27:34 14° SW 08:29:47 52° SE 08:32:34 10° ENE
[s.n.52658] 3.0 08:27:41 14° SW 08:29:54 52° SE 08:32:42 10° ENE
[s.n.52659] 3.0 08:27:48 14° SW 08:30:02 53° SE 08:32:49 10° ENE
[s.n.52657] 3.0 08:27:56 14° SW 08:30:10 53° SE 08:32:56 10° ENE
Cosmos 2228 4.2 08:27:30 10° NNW 08:31:05 25° W 08:34:34 10° SW
CBERS-1 4.2 08:27:44 10° N 08:32:46 58° WNW 08:37:45 10° SSW
DELTA 2 DEB (DPAF) 4.5 08:30:13 10° SSE 08:34:37 71° ENE 08:39:02 10° N
Cosmos 1408 2.5 08:31:39 10° S 08:35:17 84° W 08:38:56 10° N
Cosmos 2056 Rocket 3.5 08:35:03 10° SSW 08:40:12 85° WNW 08:45:31 10° NNE
Cosmos 2058 Rocket 3.0 08:36:40 10° NNW 08:41:03 70° W 08:45:22 10° S
NOSS 3-3 (A) 4.3 08:35:52 10° SW 08:41:22 54° NW 08:47:44 10° NNE
NOSS 3-3 (C) 4.2 08:35:58 10° SW 08:41:28 55° NW 08:47:50 10° NNE
OAO 2 Rocket 4.3 08:38:02 10° SW 08:42:19 30° S 08:46:35 10° ESE
Cosmos 1626 Rocket 4.0 08:41:13 10° S 08:45:34 65° E 08:49:56 10° NNE
Cosmos 2369 Rocket 3.0 08:43:49 10° NW 08:48:37 30° WSW 08:53:25 10° SSW
DNEPR-1 R/B 4.2 08:45:50 10° WSW 08:49:52 44° NW 08:54:21 10° NNE
Cosmos 2218 Rocket 4.2 08:44:26 10° NNW 08:50:30 54° W 08:56:36 10° SSW
SL-16 R/B 4.3 08:48:11 10° WNW 08:51:05 14° NW 08:53:59 10° NNW
Nadezhda 3 Rocket 4.5 08:45:12 10° S 08:51:27 67° E 08:57:39 10° NNE
Cosmos 1190 Rocket 4.1 08:50:18 10° NNW 08:55:32 62° WSW 09:00:45 10° S
Cosmos 1656 Rocket 4.3 08:51:34 10° NW 08:56:20 32° WSW 09:01:05 10° SSW
IRS-P3 4.2 08:51:28 10° N 08:56:49 75° WNW 09:02:08 10° SSW
CZ-3 R/B 4.3 08:20:54 10° WSW 09:01:51 50° SSW 09:12:26 10° ESE
